Current weather by "City, St" or "zip code"  
 
Advertise Here

Current Conditions: Yolo County Airport, CA

Mostly Cloudy


63.0 F

Last Updated on Sep 16 2021, 9:55 pm PDT
Humidity: 68%
Wind Speed: N 0.0 mph
Barometer 29.80 in
Dewpoint: 51.8 F
Visibility: 10.00 mi
Precip: --
Heat Index: NA
Wind Chill: NA
Current conditions at:

Yolo County Airport, CA (KDWA)

Lat: 38.57939 Lon: 121.85694

Local Radar Image active severe weather and emergency alerts image image weather storm and storm spotter reports image weather observation monitoring service image
Local
Radar
Active
Alerts
Storm Reports Obs
Monitoring

Sign-up For Email & Text Message Weather Alert Notification Services



Advertise Here

Observation History for Yolo County Airport, CA


Time Wind
(mph)
Vis
(mi)
Weather Precip (in) Temperature (F) Relative
Humidity
Wind
Chill
(F)
Heat
Index
(F)
Pressure
Air Dwpt altimeter
(in)
sea level
(mb)
Rmks
9:55 pm PDT N 0.0 10.00 Mostly Cloudy -- 63.0 51.8 68% NA NA 29.80 M
8:10 pm PDT N 0.0 10.00 NULL -- 70.0 53.6 57% NA NA 29.78 M
3:15 pm PDT SW 5.8 10.00 Fair -- 81.0 53.6 39% NA 81 29.79 M
2:55 pm PDT SW 8.1 10.00 NULL -- 82.0 53.6 37% NA 81 29.79 M
1:55 pm PDT N 0.0 G 11.5 10.00 NULL -- NULL % NA NA 29.80 M
12:50 pm PDT N 0.0 10.00 Fair -- 73.0 53.6 50% NA NA 29.82 M
11:55 am PDT NW 5.8 G 11.5 10.00 Fair -- 70.0 53.6 57% NA NA 29.84 M
10:55 am PDT N 9.2 10.00 Fair -- 66.0 53.6 64% NA NA 29.86 M
9:55 am PDT N 8.1 10.00 Fair -- 63.0 53.6 73% 63 NA 29.85 M
8:55 am PDT NW 6.9 9.00 Fair -- 59.0 51.8 77% 58 NA 29.84 M
7:55 am PDT N 0.0 9.00 Fair -- 55.0 51.8 88% NA NA 29.83 M
6:55 am PDT W 3.5 9.00 A Few Clouds -- 54.0 48.2 82% NA NA 29.81 M
5:50 am PDT N 0.0 10.00 Mostly Cloudy -- 54.0 48.2 82% NA NA 29.80 M
4:55 am PDT N 0.0 10.00 Overcast -- 54.0 48.2 82% NA NA 29.79 M
3:55 am PDT N 0.0 10.00 Overcast -- 55.0 50.0 82% NA NA 29.79 M
2:55 am PDT N 0.0 10.00 Mostly Cloudy -- 57.0 51.8 82% NA NA 29.78 M
1:55 am PDT SE 3.5 10.00 Overcast -- 57.0 51.8 82% NA NA M
12:55 am PDT S 5.8 10.00 Overcast -- 59.0 51.8 77% 58 NA 29.78 M
11:50 pm PDT S 6.9 10.00 Overcast -- 61.0 50.0 68% 60 NA 29.77 M
10:55 pm PDT S 6.9 10.00 Overcast -- 63.0 48.2 60% 63 NA 29.78 M
9:55 pm PDT S 8.1 10.00 NULL -- 66.0 46.4 49% NA NA 29.78 M

Regional Weather Observation


University Airport, CA (KEDU)

Fair
59.0 F

Vacaville Nut Tree Airport, CA (KVCB)

Fair
63.0 F

Sacramento International Airport, CA (KSMF)

Fair
62.0 F

Fairfield / Travis Air Force Base, CA (KSUU)

Fair and Breezy
58.0 F

Lincoln Regional Karl Harder Field, CA (KLHM)

Fair
64.0 F

Sacramento, McClellan Airfield Airport, CA (KMCC)

Partly Cloudy
64.0 F
Advertise Here


Advertise Here